Regional Weather Roundup
Issued by NWS Grand Forks, ND

Home | Current Version | Previous Version | Graphics & Text | Print | Product List | Glossary On
Versions: 1 2 3 4 5 6 7 8 9 10 11 12 13 14 15 16 17 18 19 20 21 22 23 24 25 26 27 28 29 30 31 32 33 34 35 36 37 38 39 40 41 42 43 44 45 46 47 48 49 50
000
ASUS43 KFGF 282010
RWRFGF
PRAIRIE TO PINES  WEATHER ROUNDUP
NATIONAL WEATHER SERVICE EASTERN NORTH DAKOTA/GRAND FORKS ND
200 PM CST WED JAN 28 2015

 **SATELLITE DATA USED TO AUGMENT SKY COVER AT AUTOMATED STATIONS**
 *****  WEATHER ACROSS EASTERN NORTH DAKOTA  *****

CITY           SKY/WX    TMP DP  RH WIND       PRES   REMARKS
GRAND FORKS    CLOUDY    34  34 100 W6        29.77R FOG
GRAND FRKS AFB CLOUDY    33  32  94 NW6       29.78R FOG
GRAND FRKS NWS   N/A     32 N/A N/A W2          N/A
DEVILS LAKE    CLOUDY    30  28  93 N17       29.79R WCI  18
FARGO          CLOUDY    36  32  85 S10       29.75F FOG
WAHPETON ARPT  CLOUDY    32  32 100 S8        29.76S WCI  25
$$

 ***** WEATHER ACROSS CENTRAL AND WESTERN NORTH DAKOTA  *****

CITY           SKY/WX    TMP DP  RH WIND       PRES   REMARKS
BISMARCK       CLOUDY    33  31  92 NW18G28   29.85R WCI  22
MINOT          CLOUDY    28  26  92 NW18      29.91R FOG     WCI  15
JAMESTOWN      CLOUDY    32  31  96 N15       29.75R FOG     WCI  22
MINOT AFB      FRZ DRZL  28  28 100 N14       29.92R FOG     WCI  17
GARRISON         N/A     31  29  92 N17       29.89R WCI  19
WILLISTON      CLOUDY    32  28  85 NW18G26   30.04R WCI  20
DICKINSON      CLOUDY    32  29  88 NW26G32   29.93R FOG     WCI  18
HETTINGER      CLOUDY    45  33  63 NW33G39   29.89R
$$

 *****  OTHER AIRPORT OBSERVATIONS IN OUR AREA  *****

CITY           SKY/WX    TMP DP  RH WIND       PRES   REMARKS
WALHALLA         N/A     32  32 100 N13       29.81S FOG     WCI  22
GRAFTON AIRPOR NOT AVBL
VALLEY CITY AR CLOUDY    32  32 100 NW9       29.74S FOG     WCI  24
CANDO          CLOUDY    28  28 100 N17G23    29.83R FOG     WCI  16
CAVALIER APRT  FOG       32  32 100 N9        29.79S VSB 1/4 WCI  24
GWINNER        CLOUDY    36  36 100 SE5       29.73F
ROLLA          CLOUDY    25  25 100 N15       29.85R FOG     WCI  12
 ***** THE ABOVE OBSERVATIONS ARE NON NWS ARE NOT QUALITY
       CONTROLLED AND MAY MIS-REPORT RAIN FOR SNOW...
$$

  *****  WEATHER ACROSS NORTHERN MINNESOTA  *****

CITY           SKY/WX    TMP DP  RH WIND       PRES   REMARKS
FLAG ISLAND    CLOUDY    28  28 100 E5        29.78F FOG     WCI  23
WARROAD        FOG       32  28  86 CALM      29.78S VSB 1
ROSEAU         CLOUDY    34  28  80 E3        29.77S FOG
HALLOCK        FOG       34  32  93 CALM      29.78S VSB 1/2
THF RVR FALLS  CLOUDY    34  30  86 SW5       29.76F
BAUDETTE       CLOUDY    31  30  96 S3        29.77F FOG
WASKISH        CLOUDY    30  28  93 CALM      29.78F FOG
CROOKSTON      CLOUDY    34  32  93 W6        29.78R FOG
STEPHEN NDAWN    N/A     34  34 100 W3          N/A
GREENBUSH NDAW   N/A     34  32  93 N2          N/A
$$
  *****  WEATHER ACROSS CENTRAL AND WEST MINNESOTA  *****

CITY           SKY/WX    TMP DP  RH WIND       PRES   REMARKS
FOSSTON        CLOUDY    32  28  86 SW7       29.76S FOG
BEMIDJI        CLOUDY    31  30  95 S8        29.76R FOG     WCI  24
PARK RAPIDS    CLOUDY    32  29  88 S12       29.74F FOG     WCI  23
ELBOW LAKE     CLOUDY    32  31  96 S13G18    29.74F FOG     WCI  22
WADENA         CLOUDY    30  28  93 S10       29.76F FOG     WCI  21
DETROIT LAKES  CLOUDY    34  32  93 S13       29.75F FOG     WCI  25
MOORHEAD       CLOUDY    36  36 100 S13       29.76F FOG
FERGUS FALLS   CLOUDY    34  30  86 S9        29.79F FOG
MORRIS MN      CLOUDY    34  32  93 SE14      29.74F FOG     WCI  24
STAPLES        CLOUDY    30  28  93 S8        29.78S FOG     WCI  23
$$
  *****  WEATHER ELSEWHERE ACROSS MINNESOTA  *****

CITY           SKY/WX    TMP DP  RH WIND       PRES   REMARKS
DULUTH         CLOUDY    28  22  78 S12       29.82F WCI  18
INTRNTL FALLS  CLOUDY    27  23  85 SE6       29.81F WCI  20
ELY            CLOUDY    27  23  86 S9        29.81F WCI  17
CLOQUET        CLOUDY    28  21  74 SE8       29.82F WCI  20
WHEATON        CLOUDY    32  30  93 SE13      29.76F FOG     WCI  22
BRAINERD       CLOUDY    29  27  92 S10       29.80F FOG     WCI  20
HIBBING        CLOUDY    27  21  78 S9        29.81F WCI  18
ALEXANDRIA     CLOUDY    31  30  96 S12       29.76F FOG     WCI  22
SAINT CLOUD    CLOUDY    29  26  89 SE13      29.80F FOG     WCI  19
MINNEAPOLIS    CLOUDY    30  25  81 SE16      29.83F HAZE    WCI  19
$$

  *****  WEATHER ACROSS SOUTH DAKOTA  *****

CITY           SKY/WX    TMP DP  RH WIND       PRES   REMARKS
SIOUX FALLS    PTSUNNY   43  35  73 S6        29.67F
BROOKINGS      NOT AVBL
WATERTOWN      CLOUDY    36  32  85 S3        29.69F
HURON          MOSUNNY   42  35  76 N9        29.69F
SISSETON         N/A     35  33  92 S7        29.72F
ABERDEEN       CLOUDY    41  34  76 CALM      29.72R
MITCHELL       MOSUNNY   47  38  71 NW17      29.70R
PIERRE         PTSUNNY   57  32  38 NW25      29.73F
MOBRIDGE       CLOUDY    53  36  52 NW20G28   29.74R
RAPID CITY     CLOUDY    57  25  29 NW32G44   29.90S
$$

  *****  SOME WEATHER IN NEARBY STATES *****

CITY           SKY/WX    TMP DP  RH WIND       PRES   REMARKS
GLASGOW MT     CLOUDY    34  29  82 NW18      30.16R WCI  23
GREAT FALLS MT SUNNY     46  32  58 N9        30.24R
CHEYENNE WY    PTSUNNY   49  27  42 W21G45    30.06F
SCOTTSBLUFF NE   N/A    N/A N/A N/A MISG      30.01R
OMAHA NE       PTSUNNY   52  35  52 SE13      29.69F
DES MOINES IA  CLOUDY    48  35  60 S20       29.77F
DAVENPORT IA   PTSUNNY   35  25  66 SE21G30   29.97F WCI  24
CHICAGO IL     CLOUDY    33  19  56 SE14      30.11F WCI  23
EAU CLAIRE WI  CLOUDY    29  23  78 SE13      29.90F HAZE    WCI  19
LA CROSSE WI   PTSUNNY   34  26  72 SE13      29.92F WCI  25
$$

  *****  SOME NATIONAL WEATHER *****

CITY           SKY/WX    TMP DP  RH WIND       PRES   REMARKS
LA GUARDIA NY  SUNNY     33  10  38 NW13      30.07R WCI  24
RALEIGH NC     SUNNY     45  11  25 VRB6      30.21S
ATLANTA GA     MOSUNNY   54  23  30 CALM      30.22F
NEW ORLEANS LA MOSUNNY   67  38  34 VRB7      30.24F
OKLAHOMA CITY  PTSUNNY   78  41  26 SW21G26   29.90F
ALBUQUERQUE NM MOSUNNY   61  29  29 W15       30.21F
SALT LAKE CITY PTSUNNY   48  36  63 N7        30.30F
LOS ANGELES CA CLOUDY    69  48  47 SE3       30.10F
BOISE ID       FOG       37  36  96 N3        30.37S VSB 1
SEATTLE WA     PTSUNNY   50  44  80 W3        30.40S
$$

*** WEATHER ACROSS MANITOBA...SASKATCHEWAN AND ONTARIO ***
                ***ONTARIO***

CITY           SKY/WX    TMP DP  RH WIND       PRES   REMARKS
GERALDTON      LGT SNOW  28  25  86 S7        29.97  VSB 1   WCI  21
THUNDER BAY    CLOUDY    28  27  93 SE12      29.94F WCI  18
SIOUX LOOKOUT  LGT SNOW  28  27  93 E6        29.82F WCI  22
TORONTO        MOSUNNY   28   0  29 NW3       30.27S
BIG TROUT LK   PTSUNNY    0  -8  71 N6        30.14F WCI -12
PICKLE LAKE    LGT SNOW  18  14  86 NE12G17   29.93F VSB 1   WCI   5
DRYDEN         CLOUDY    27  25  93 SE6       29.80F WCI  20
KENORA         FRZ DRZL  27  27 100 SE5       29.79F VSB 1   WCI  21
$$
                *** MANITOBA***

CITY           SKY/WX    TMP DP  RH WIND       PRES   REMARKS
BRANDON        CLOUDY    23  21  93 N15       29.93R WCI  10
DAUPHIN        LGT SNOW  16  12  86 NW9       30.04R WCI   4
ISLAND LAKE    PTSUNNY    3  -4  72 NE7       30.11S WCI  -9
PILOT MOUND      N/A     27  25  93 N8          N/A  WCI  18
THE PAS        LGT SNOW   0  -6  78 N6        30.15S WCI -12
THOMPSON       FLURRIES  -8 -17  65 N7        30.23F WCI -22
WINNIPEG       LGT SNOW  30  28  93 N9        29.83F FOG     WCI  22
LYNN LAKE      LGT SNOW  -9 -15  77 E3        30.20F
CHURCHILL      CRYSTALS -17 -22  76 NW14      30.30R WCI -40
GILLAM         CLOUDY   -13 -22  64 W7        30.28R WCI -29
$$
                ***SASKATCHEWAN***

CITY           SKY/WX    TMP DP  RH WIND       PRES   REMARKS
ESTEVAN        CLOUDY    27  25  93 NW22      30.00R WCI  12
KINDERSLEY     CLOUDY    32  27  80 NW18G26   30.18R WCI  20
LLOYDMINSTER   MOSUNNY   14   7  73 NW22G29   30.22R WCI  -4
PRINCE ALBERT  FLURRIES  14  12  92 W5        30.12S WCI   6
REGINA         CLOUDY    28  27  93 NW23G29   30.06R WCI  14
YORKTON        CLOUDY    14  12  92 N10       30.02F WCI   1
N. BATTLEFORD  CLOUDY    25  21  86 NW13G20   30.18R WCI  13
LA RONGE       FLURRIES   3  -2  78 NW8       30.19R WCI -10
SASKATOON      CLOUDY    27  21  80 NW18G32   30.13R WCI  13
SWIFT CURRENT  CLOUDY    30  30 100 NW22G30   30.14R WCI  17
$$
NOTE: THESE ARE AUTOMATED STATIONS WITH LIMITED QUALITY CONTROL
      "FAIR" INDICATES FEW OR NO CLOUDS BELOW 12,000 FEET WITH NO
      SIGNIFICANT WEATHER AND/OR OBSTRUCTIONS TO VISIBILITY.
      SKY/WX - SKY CONDITION AND SIGNIFICANT WEATHER.
      TMP - AIR TEMPERATURE.    DP   - DEWPOINT TEMPERATURE.
      RH  - RELATIVE HUMIDITY.  PRES - PRESSURE.
      HX  - HEAT INDEX.         WCI  - WIND CHILL INDEX.
$


USA.gov is the U.S. government's official web portal to all federal, state and local government web resources and services.